Time,TemperatureF,DewpointF,PressureIn,WindDirection,WindDirectionDegrees,WindSpeedMPH,WindSpeedGustMPH,Humidity,HourlyPrecipIn,Conditions,Clouds,dailyrainin,SoftwareType,DateUTC
2013-01-21 00:04:00,6.0,-6.0,30.00,WNW,290,13.0,23.0,58,-99.99,,,-99.99,,2013-01-21 05:04:00,
2013-01-21 00:13:00,6.0,-6.0,30.00,WNW,290,13.0,23.0,58,-99.99,,,-99.99,,2013-01-21 05:13:00,
2013-01-21 00:22:00,6.0,-6.0,30.00,West,275,10.0,24.0,59,-99.99,,,-99.99,,2013-01-21 05:22:00,
2013-01-21 00:34:00,6.0,-5.0,30.00,WNW,290,10.0,17.0,60,-99.99,,,-99.99,,2013-01-21 05:34:00,
2013-01-21 00:42:00,6.0,-5.0,30.00,WNW,290,10.0,17.0,60,-99.99,,,-99.99,,2013-01-21 05:42:00,
2013-01-21 00:52:00,5.0,-5.0,29.99,West,275,8.0,16.0,61,-99.99,,,-99.99,,2013-01-21 05:52:00,
2013-01-21 01:03:00,5.0,-5.0,29.99,WNW,285,9.0,16.0,63,-99.99,,,-99.99,,2013-01-21 06:03:00,
2013-01-21 01:13:00,5.0,-5.0,29.99,WNW,285,9.0,16.0,63,-99.99,,,-99.99,,2013-01-21 06:13:00,
2013-01-21 01:23:00,5.0,-6.0,29.98,West,265,11.0,19.0,61,-99.99,,,-99.99,,2013-01-21 06:23:00,
2013-01-21 01:33:00,5.0,-5.0,29.98,West,275,10.0,16.0,62,-99.99,,,-99.99,,2013-01-21 06:33:00,
2013-01-21 01:43:00,5.0,-5.0,29.98,West,275,10.0,16.0,62,-99.99,,,-99.99,,2013-01-21 06:43:00,
2013-01-21 01:52:00,4.0,-6.0,29.96,WNW,285,10.0,15.0,62,-99.99,,,-99.99,,2013-01-21 06:52:00,
2013-01-21 02:03:00,4.0,-6.0,29.96,WNW,285,10.0,15.0,62,-99.99,,,-99.99,,2013-01-21 07:03:00,
2013-01-21 02:23:00,3.0,-7.0,29.96,WNW,295,9.0,14.0,61,-99.99,,,-99.99,,2013-01-21 07:23:00,
2013-01-21 02:33:00,3.0,-9.0,29.96,West,280,7.0,15.0,58,-99.99,,,-99.99,,2013-01-21 07:33:00,
2013-01-21 02:42:00,3.0,-9.0,29.96,West,280,7.0,15.0,58,-99.99,,,-99.99,,2013-01-21 07:42:00,
2013-01-21 02:52:00,3.0,-8.0,29.95,WNW,290,6.0,14.0,60,-99.99,,,-99.99,,2013-01-21 07:52:00,
2013-01-21 03:03:00,3.0,-8.0,29.95,WNW,290,6.0,14.0,60,-99.99,,,-99.99,,2013-01-21 08:03:00,
2013-01-21 03:14:00,3.0,-8.0,29.95,WNW,290,6.0,14.0,60,-99.99,,,-99.99,,2013-01-21 08:14:00,
2013-01-21 03:23:00,3.0,-7.0,29.95,WNW,285,6.0,11.0,62,-99.99,,,-99.99,,2013-01-21 08:23:00,
2013-01-21 03:33:00,3.0,-6.0,29.94,WNW,290,8.0,13.0,65,-99.99,,,-99.99,,2013-01-21 08:33:00,
2013-01-21 03:42:00,3.0,-6.0,29.94,WNW,290,8.0,13.0,65,-99.99,,,-99.99,,2013-01-21 08:42:00,
2013-01-21 03:53:00,4.0,-5.0,29.93,WNW,295,7.0,11.0,66,-99.99,,,-99.99,,2013-01-21 08:53:00,
2013-01-21 04:03:00,4.0,-4.0,29.93,WNW,300,9.0,18.0,66,-99.99,,,-99.99,,2013-01-21 09:03:00,
2013-01-21 04:13:00,4.0,-4.0,29.93,WNW,300,9.0,18.0,66,-99.99,,,-99.99,,2013-01-21 09:13:00,
2013-01-21 04:23:00,5.0,-4.0,29.92,West,280,9.0,20.0,66,-99.99,,,-99.99,,2013-01-21 09:23:00,
2013-01-21 04:33:00,5.0,-2.0,29.91,West,270,11.0,21.0,70,-99.99,,,-99.99,,2013-01-21 09:33:00,
2013-01-21 04:42:00,5.0,-2.0,29.91,West,270,11.0,21.0,70,-99.99,,,-99.99,,2013-01-21 09:42:00,
2013-01-21 04:53:00,4.0,-2.0,29.90,West,265,9.0,17.0,75,-99.99,,,-99.99,,2013-01-21 09:53:00,
2013-01-21 05:03:00,4.0,-2.0,29.90,West,265,9.0,17.0,75,-99.99,,,-99.99,,2013-01-21 10:03:00,
2013-01-21 05:12:00,4.0,-2.0,29.90,West,265,9.0,17.0,75,-99.99,,,-99.99,,2013-01-21 10:12:00,
2013-01-21 05:22:00,4.0,-2.0,29.90,West,265,8.0,16.0,76,-99.99,,,-99.99,,2013-01-21 10:22:00,
2013-01-21 05:33:00,4.0,-2.0,29.89,WNW,290,6.0,12.0,77,-99.99,,,-99.99,,2013-01-21 10:33:00,
2013-01-21 05:43:00,4.0,-2.0,29.89,WNW,290,6.0,12.0,77,-99.99,,,-99.99,,2013-01-21 10:43:00,
2013-01-21 05:52:00,4.0,-2.0,29.89,West,280,5.0,10.0,78,-99.99,,,-99.99,,2013-01-21 10:52:00,
2013-01-21 06:03:00,4.0,-1.0,29.88,WNW,295,8.0,11.0,79,-99.99,,,-99.99,,2013-01-21 11:03:00,
2013-01-21 06:13:00,4.0,-1.0,29.88,WNW,295,8.0,11.0,79,-99.99,,,-99.99,,2013-01-21 11:13:00,
2013-01-21 06:23:00,3.0,-1.0,29.88,WNW,285,7.0,11.0,80,-99.99,,,-99.99,,2013-01-21 11:23:00,
2013-01-21 06:33:00,4.0,-1.0,29.87,West,270,6.0,12.0,80,-99.99,,,-99.99,,2013-01-21 11:33:00,
2013-01-21 06:43:00,4.0,-1.0,29.87,West,270,6.0,12.0,80,-99.99,,,-99.99,,2013-01-21 11:43:00,
2013-01-21 06:53:00,5.0,1.0,29.87,West,270,6.0,12.0,83,-99.99,,,-99.99,,2013-01-21 11:53:00,
2013-01-21 07:03:00,5.0,1.0,29.87,West,270,6.0,12.0,83,-99.99,,,-99.99,,2013-01-21 12:03:00,
2013-01-21 08:33:00,3.0,-1.0,29.85,West,270,8.0,12.0,81,-99.99,,,-99.99,,2013-01-21 13:33:00,
2013-01-21 08:43:00,3.0,-1.0,29.85,West,270,8.0,12.0,81,-99.99,,,-99.99,,2013-01-21 13:43:00,
2013-01-21 08:53:00,3.0,-2.0,29.85,West,265,8.0,15.0,80,-99.99,,,-99.99,,2013-01-21 13:53:00,
2013-01-21 09:04:00,3.0,-2.0,29.85,West,275,8.0,16.0,79,-99.99,,,-99.99,,2013-01-21 14:04:00,
2013-01-21 09:13:00,3.0,-2.0,29.85,West,275,8.0,16.0,79,-99.99,,,-99.99,,2013-01-21 14:13:00,
2013-01-21 09:23:00,3.0,-2.0,29.85,West,280,9.0,16.0,79,-99.99,,,-99.99,,2013-01-21 14:23:00,
2013-01-21 09:33:00,3.0,-2.0,29.84,West,270,9.0,15.0,79,-99.99,,,-99.99,,2013-01-21 14:33:00,
2013-01-21 09:43:00,3.0,-2.0,29.84,West,270,9.0,15.0,79,-99.99,,,-99.99,,2013-01-21 14:43:00,
2013-01-21 09:53:00,3.0,-3.0,29.85,West,260,6.0,15.0,76,-99.99,,,-99.99,,2013-01-21 14:53:00,
2013-01-21 10:03:00,4.0,-2.0,29.85,West,270,11.0,18.0,77,-99.99,,,-99.99,,2013-01-21 15:03:00,
2013-01-21 10:13:00,4.0,-2.0,29.85,West,270,11.0,18.0,77,-99.99,,,-99.99,,2013-01-21 15:13:00,
2013-01-21 10:23:00,4.0,-2.0,29.85,WSW,245,2.0,10.0,76,-99.99,,,-99.99,,2013-01-21 15:23:00,
2013-01-21 10:33:00,5.0,-2.0,29.84,West,270,4.0,10.0,71,-99.99,,,-99.99,,2013-01-21 15:33:00,
2013-01-21 10:43:00,5.0,-2.0,29.84,West,270,4.0,10.0,71,-99.99,,,-99.99,,2013-01-21 15:43:00,
2013-01-21 10:53:00,6.0,-2.0,29.84,West,280,9.0,19.0,70,-99.99,,,-99.99,,2013-01-21 15:53:00,
2013-01-21 11:04:00,7.0,-2.0,29.84,West,265,10.0,17.0,67,-99.99,,,-99.99,,2013-01-21 16:04:00,
2013-01-21 11:13:00,7.0,-2.0,29.84,West,265,10.0,17.0,67,-99.99,,,-99.99,,2013-01-21 16:13:00,
2013-01-21 11:23:00,7.0,-1.0,29.84,West,260,9.0,16.0,69,-99.99,,,-99.99,,2013-01-21 16:23:00,
2013-01-21 11:33:00,7.0,-1.0,29.84,West,265,9.0,21.0,69,-99.99,,,-99.99,,2013-01-21 16:33:00,
2013-01-21 11:43:00,7.0,-1.0,29.84,West,265,9.0,21.0,69,-99.99,,,-99.99,,2013-01-21 16:43:00,
2013-01-21 11:53:00,7.0,-1.0,29.84,West,260,11.0,17.0,69,-99.99,,,-99.99,,2013-01-21 16:53:00,
2013-01-21 12:03:00,7.0,-1.0,29.84,West,260,11.0,17.0,69,-99.99,,,-99.99,,2013-01-21 17:03:00,
2013-01-21 12:23:00,9.0,-1.0,29.83,West,265,12.0,20.0,64,-99.99,,,-99.99,,2013-01-21 17:23:00,
2013-01-21 12:33:00,9.0,1.0,29.84,West,270,15.0,22.0,68,-99.99,,,-99.99,,2013-01-21 17:33:00,
2013-01-21 12:43:00,9.0,1.0,29.84,West,270,15.0,22.0,68,-99.99,,,-99.99,,2013-01-21 17:43:00,
2013-01-21 12:53:00,9.0,1.0,29.83,West,275,11.0,24.0,68,-99.99,,,-99.99,,2013-01-21 17:53:00,
2013-01-21 13:03:00,9.0,1.0,29.82,WSW,255,14.0,24.0,70,-99.99,,,-99.99,,2013-01-21 18:03:00,
2013-01-21 13:12:00,9.0,1.0,29.82,WSW,255,14.0,24.0,70,-99.99,,,-99.99,,2013-01-21 18:12:00,
2013-01-21 13:23:00,8.0,1.0,29.82,West,270,12.0,25.0,71,-99.99,,,-99.99,,2013-01-21 18:23:00,
2013-01-21 13:33:00,8.0,1.0,29.81,WSW,255,10.0,20.0,71,-99.99,,,-99.99,,2013-01-21 18:33:00,
2013-01-21 13:43:00,8.0,1.0,29.81,WSW,255,10.0,20.0,71,-99.99,,,-99.99,,2013-01-21 18:43:00,
2013-01-21 13:52:00,8.0,0.0,29.81,West,260,13.0,25.0,69,-99.99,,,-99.99,,2013-01-21 18:52:00,
2013-01-21 14:03:00,7.0,-1.0,29.81,West,260,14.0,24.0,69,-99.99,,,-99.99,,2013-01-21 19:03:00,
2013-01-21 14:13:00,7.0,-1.0,29.81,West,260,14.0,24.0,69,-99.99,,,-99.99,,2013-01-21 19:13:00,
2013-01-21 14:22:00,7.0,0.0,29.81,West,265,13.0,19.0,71,-99.99,,,-99.99,,2013-01-21 19:22:00,
2013-01-21 14:33:00,8.0,1.0,29.81,West,280,9.0,23.0,71,-99.99,,,-99.99,,2013-01-21 19:33:00,
2013-01-21 14:43:00,8.0,1.0,29.81,West,280,9.0,23.0,71,-99.99,,,-99.99,,2013-01-21 19:43:00,
2013-01-21 14:53:00,8.0,0.0,29.81,West,275,8.0,18.0,68,-99.99,,,-99.99,,2013-01-21 19:53:00,
2013-01-21 15:04:00,8.0,0.0,29.81,West,270,7.0,19.0,68,-99.99,,,-99.99,,2013-01-21 20:04:00,
2013-01-21 15:12:00,8.0,0.0,29.81,West,270,7.0,19.0,68,-99.99,,,-99.99,,2013-01-21 20:12:00,
2013-01-21 15:23:00,8.0,-1.0,29.81,West,260,13.0,21.0,66,-99.99,,,-99.99,,2013-01-21 20:23:00,
2013-01-21 15:33:00,8.0,-1.0,29.81,West,275,12.0,29.0,66,-99.99,,,-99.99,,2013-01-21 20:33:00,
2013-01-21 15:43:00,8.0,-1.0,29.81,West,275,12.0,29.0,66,-99.99,,,-99.99,,2013-01-21 20:43:00,
2013-01-21 15:53:00,8.0,-1.0,29.81,West,270,17.0,30.0,66,-99.99,,,-99.99,,2013-01-21 20:53:00,
2013-01-21 16:04:00,8.0,-1.0,29.81,West,275,10.0,26.0,68,-99.99,,,-99.99,,2013-01-21 21:04:00,
2013-01-21 16:12:00,8.0,-1.0,29.81,West,275,10.0,26.0,68,-99.99,,,-99.99,,2013-01-21 21:12:00,
2013-01-21 16:23:00,7.0,-1.0,29.82,West,260,14.0,26.0,70,-99.99,,,-99.99,,2013-01-21 21:23:00,
2013-01-21 16:33:00,7.0,0.0,29.84,West,265,13.0,27.0,72,-99.99,,,-99.99,,2013-01-21 21:33:00,
2013-01-21 16:43:00,7.0,0.0,29.84,West,265,13.0,27.0,72,-99.99,,,-99.99,,2013-01-21 21:43:00,
2013-01-21 16:53:00,6.0,0.0,29.84,West,265,13.0,21.0,73,-99.99,,,-99.99,,2013-01-21 21:53:00,
2013-01-21 17:04:00,6.0,0.0,29.84,West,265,13.0,21.0,73,-99.99,,,-99.99,,2013-01-21 22:04:00,
2013-01-21 17:23:00,6.0,-1.0,29.85,West,270,10.0,19.0,74,-99.99,,,-99.99,,2013-01-21 22:23:00,
2013-01-21 17:33:00,6.0,-2.0,29.85,WNW,285,11.0,21.0,70,-99.99,,,-99.99,,2013-01-21 22:33:00,
2013-01-21 17:43:00,6.0,-2.0,29.85,WNW,285,11.0,21.0,70,-99.99,,,-99.99,,2013-01-21 22:43:00,
2013-01-21 17:52:00,5.0,-3.0,29.86,West,270,8.0,23.0,68,-99.99,,,-99.99,,2013-01-21 22:52:00,
2013-01-21 18:03:00,5.0,-3.0,29.86,West,270,8.0,23.0,68,-99.99,,,-99.99,,2013-01-21 23:03:00,
2013-01-21 18:13:00,5.0,-3.0,29.86,West,270,8.0,23.0,68,-99.99,,,-99.99,,2013-01-21 23:13:00,
2013-01-21 18:23:00,4.0,-5.0,29.88,West,280,13.0,29.0,64,-99.99,,,-99.99,,2013-01-21 23:23:00,
2013-01-21 18:33:00,4.0,-5.0,29.88,West,280,13.0,29.0,64,-99.99,,,-99.99,,2013-01-21 23:33:00,
2013-01-21 18:42:00,4.0,-5.0,29.88,West,280,13.0,29.0,64,-99.99,,,-99.99,,2013-01-21 23:42:00,
2013-01-21 18:53:00,4.0,-6.0,29.89,West,280,12.0,25.0,63,-99.99,,,-99.99,,2013-01-21 23:53:00,
2013-01-21 19:03:00,3.0,-6.0,29.89,West,270,11.0,20.0,65,-99.99,,,-99.99,,2013-01-22 00:03:00,
2013-01-21 19:12:00,3.0,-6.0,29.89,West,270,11.0,20.0,65,-99.99,,,-99.99,,2013-01-22 00:12:00,
2013-01-21 19:23:00,3.0,-6.0,29.90,WNW,285,11.0,21.0,65,-99.99,,,-99.99,,2013-01-22 00:23:00,
2013-01-21 19:33:00,3.0,-6.0,29.91,West,275,9.0,19.0,65,-99.99,,,-99.99,,2013-01-22 00:33:00,
2013-01-21 19:43:00,3.0,-6.0,29.91,West,275,9.0,19.0,65,-99.99,,,-99.99,,2013-01-22 00:43:00,
2013-01-21 19:53:00,2.0,-7.0,29.91,West,275,11.0,21.0,63,-99.99,,,-99.99,,2013-01-22 00:53:00,
2013-01-21 20:02:00,2.0,-8.0,29.92,WNW,285,13.0,21.0,63,-99.99,,,-99.99,,2013-01-22 01:02:00,
2013-01-21 20:12:00,2.0,-8.0,29.92,WNW,285,13.0,21.0,63,-99.99,,,-99.99,,2013-01-22 01:12:00,
2013-01-21 20:23:00,1.0,-8.0,29.93,West,280,13.0,26.0,65,-99.99,,,-99.99,,2013-01-22 01:23:00,
2013-01-21 20:33:00,1.0,-8.0,29.93,West,265,11.0,20.0,64,-99.99,,,-99.99,,2013-01-22 01:33:00,
2013-01-21 20:43:00,1.0,-8.0,29.93,West,265,11.0,20.0,64,-99.99,,,-99.99,,2013-01-22 01:43:00,
2013-01-21 20:52:00,1.0,-8.0,29.94,West,270,9.0,21.0,66,-99.99,,,-99.99,,2013-01-22 01:52:00,
2013-01-21 21:03:00,0.0,-6.0,29.94,West,275,12.0,20.0,73,-99.99,,,-99.99,,2013-01-22 02:03:00,
2013-01-21 21:12:00,0.0,-6.0,29.94,West,275,12.0,20.0,73,-99.99,,,-99.99,,2013-01-22 02:12:00,
2013-01-21 21:23:00,-1.0,-7.0,29.94,WSW,250,11.0,21.0,74,-99.99,,,-99.99,,2013-01-22 02:23:00,
2013-01-21 21:33:00,-1.0,-7.0,29.94,West,265,10.0,19.0,74,-99.99,,,-99.99,,2013-01-22 02:33:00,
2013-01-21 21:43:00,-1.0,-7.0,29.94,West,265,10.0,19.0,74,-99.99,,,-99.99,,2013-01-22 02:43:00,
2013-01-21 21:53:00,-2.0,-8.0,29.94,West,270,8.0,18.0,74,-99.99,,,-99.99,,2013-01-22 02:53:00,
2013-01-21 22:03:00,-2.0,-8.0,29.94,West,270,10.0,18.0,74,-99.99,,,-99.99,,2013-01-22 03:03:00,
2013-01-21 22:12:00,-2.0,-8.0,29.94,West,270,10.0,18.0,74,-99.99,,,-99.99,,2013-01-22 03:12:00,
2013-01-21 22:22:00,-2.0,-8.0,29.94,West,270,9.0,23.0,74,-99.99,,,-99.99,,2013-01-22 03:22:00,
2013-01-21 22:33:00,-2.0,-8.0,29.94,West,275,11.0,19.0,74,-99.99,,,-99.99,,2013-01-22 03:33:00,
2013-01-21 22:42:00,-2.0,-8.0,29.94,West,275,11.0,19.0,74,-99.99,,,-99.99,,2013-01-22 03:42:00,
2013-01-21 22:52:00,-2.0,-8.0,29.94,West,280,10.0,23.0,74,-99.99,,,-99.99,,2013-01-22 03:52:00,
2013-01-21 23:03:00,-2.0,-9.0,29.94,West,275,10.0,20.0,73,-99.99,,,-99.99,,2013-01-22 04:03:00,
2013-01-21 23:12:00,-2.0,-9.0,29.94,West,275,10.0,20.0,73,-99.99,,,-99.99,,2013-01-22 04:12:00,
2013-01-21 23:22:00,-2.0,-9.0,29.94,West,270,10.0,20.0,73,-99.99,,,-99.99,,2013-01-22 04:22:00,
2013-01-21 23:33:00,-3.0,-9.0,29.94,West,265,9.0,17.0,73,-99.99,,,-99.99,,2013-01-22 04:33:00,
2013-01-21 23:42:00,-3.0,-9.0,29.94,West,265,9.0,17.0,73,-99.99,,,-99.99,,2013-01-22 04:42:00,
2013-01-21 23:52:00,-3.0,-10.0,29.95,West,265,11.0,20.0,73,-99.99,,,-99.99,,2013-01-22 04:52:00,